Theta_e
306 306 307 308 306 297 304 306 303 305 310 308 305 304 302 301 298 296 313 310 315 319 320 325 328 329 329 331 333 332 330 331 333 333 335 336 338 338 337 334 333 335 337 340 342 343 343 344 346 346 348 349 350 351 352 353 354 355 355 357 357 358 360
308 307 306 307 308 307 304 302 303 307 311 311 307 298 302 297 293 296 306 302 307 307 304 324 324 324 326 328 330 332 333 331 331 333 335 336 337 340 340 336 335 335 336 339 341 343 344 345 345 346 349 350 351 352 352 352 353 353 354 355 355 357 359
306 308 308 307 312 311 306 303 306 301 299 300 304 302 294 292 292 296 300 305 307 309 310 318 318 320 323 326 329 330 331 333 331 332 334 336 339 341 339 338 336 333 335 338 341 343 345 348 349 348 349 350 350 351 351 351 352 352 352 353 354 357 358
304 307 308 300 305 311 310 310 310 309 304 304 300 302 303 298 294 293 296 303 303 312 313 317 318 322 323 325 326 327 329 332 333 334 333 334 336 340 339 339 338 335 336 339 341 343 346 348 348 349 350 349 349 350 351 351 354 355 354 353 355 355 356
304 300 305 302 304 304 307 308 307 308 305 304 303 303 301 297 293 294 294 294 306 314 319 319 320 323 324 324 325 327 328 329 332 334 335 336 337 338 339 339 340 338 338 337 341 345 348 349 350 350 350 350 351 352 351 353 354 354 354 353 354 356 356
301 302 306 305 304 305 308 307 304 307 305 298 295 295 300 299 297 291 294 293 309 316 322 323 324 326 325 326 326 327 328 328 329 333 334 337 337 338 341 342 341 341 343 339 340 343 345 347 347 348 350 352 353 354 353 354 355 354 354 353 355 357 357
301 303 305 307 307 307 310 311 307 310 308 306 301 291 295 298 299 302 302 297 306 319 324 325 326 327 327 327 326 324 326 326 328 331 334 336 338 337 342 343 343 342 343 342 343 342 343 346 347 349 351 352 352 353 354 355 354 354 353 353 356 358 357
303 306 307 308 307 306 306 311 313 312 308 310 307 304 301 298 300 298 298 297 307 319 325 326 327 328 329 329 326 324 325 327 330 332 333 336 337 338 342 342 341 341 342 344 345 346 346 347 347 349 351 353 354 355 355 355 355 355 355 355 356 358 358
298 300 304 303 306 307 306 308 312 313 313 313 312 310 307 302 303 303 297 293 306 317 323 325 326 327 327 326 326 326 324 328 330 331 333 335 336 337 338 339 339 339 339 340 341 344 346 345 349 351 352 353 355 355 355 355 355 357 357 358 357 357 358
288 287 290 294 297 302 306 309 310 313 313 310 306 302 303 297 305 306 302 304 311 318 320 321 323 325 326 327 327 328 328 328 328 330 332 333 334 335 336 338 338 338 338 338 339 341 345 348 349 350 352 354 355 357 357 358 357 358 358 358 358 356 357
294 297 300 303 306 303 302 307 310 310 313 310 310 307 303 298 305 305 308 309 310 313 316 318 320 323 323 324 326 326 327 328 330 331 331 331 332 333 334 334 336 338 338 338 338 340 343 347 350 351 353 354 355 357 357 359 359 359 360 359 359 357 356
301 300 301 302 306 304 305 305 307 311 312 314 312 308 305 310 306 301 310 312 310 311 315 318 319 321 323 325 326 326 327 328 328 329 331 333 333 333 334 334 334 335 336 338 340 341 340 342 344 346 349 354 355 356 356 358 359 359 359 358 358 354 356
300 300 300 303 304 307 308 308 308 309 311 310 309 309 310 310 306 303 308 311 311 313 315 317 319 320 322 324 325 326 328 329 329 329 329 329 330 332 332 333 334 334 335 336 338 340 342 343 344 345 346 347 350 353 356 359 360 359 360 358 358 357 358
300 302 302 305 305 308 308 308 308 309 311 310 311 311 312 311 307 307 307 307 310 314 315 318 320 322 323 324 327 327 325 326 327 327 326 327 328 330 331 332 333 334 335 336 337 339 340 341 341 343 344 345 348 349 352 355 357 359 360 359 358 359 358
300 303 304 306 306 306 306 308 309 309 310 310 311 311 310 311 308 307 304 306 310 317 321 320 322 322 322 322 321 323 324 326 325 324 324 325 326 328 329 330 331 331 332 332 333 334 335 336 338 341 343 344 345 347 350 352 352 355 356 356 357 357 356
297 302 304 304 305 305 305 305 306 307 307 307 309 309 310 307 305 305 303 301 307 316 321 321 320 319 318 317 318 320 323 324 323 322 323 323 324 325 327 328 328 329 329 329 330 331 332 333 334 336 338 341 344 344 347 348 351 353 353 353 353 354 355
295 301 304 302 303 302 298 301 306 308 310 312 312 314 314 313 309 303 300 302 312 317 321 318 317 317 315 315 316 317 320 322 322 322 322 323 323 324 325 325 326 326 327 328 328 329 330 330 332 334 336 339 342 345 346 348 351 351 351 352 352 352 354
296 300 302 302 299 292 294 308 309 310 310 311 310 310 312 313 312 309 313 313 317 318 319 318 316 314 313 315 317 318 318 320 321 322 322 323 324 325 325 325 324 325 326 327 328 329 329 331 332 334 335 337 341 345 347 348 348 348 348 348 349 350 352
296 301 301 297 291 293 306 311 313 313 313 313 312 313 314 315 317 315 314 315 317 318 319 318 318 316 315 317 317 318 318 320 321 321 321 322 323 323 323 323 323 324 326 327 327 327 328 329 330 331 332 335 337 337 340 341 343 343 345 346 346 347 347
300 299 297 288 292 303 307 309 312 315 313 311 309 307 313 317 317 317 316 317 317 318 318 318 318 318 317 318 317 318 318 318 318 319 319 321 323 322 323 323 323 323 324 324 325 326 328 328 328 330 330 332 333 334 334 335 338 340 342 342 343 344 344
294 297 297 296 303 302 306 306 310 311 308 308 306 302 308 316 318 318 317 317 318 319 319 318 319 319 319 318 318 317 317 318 319 319 319 320 321 323 324 324 323 324 324 324 325 326 326 327 327 328 329 330 330 330 330 331 332 333 335 338 340 340 340
300 297 295 296 295 292 300 309 312 314 312 312 313 308 305 316 318 320 319 318 318 319 318 317 318 319 316 313 315 316 317 318 318 320 321 322 322 323 323 324 324 325 325 325 325 325 325 326 327 327 328 329 328 328 328 329 330 330 331 332 336 339 339
299 298 294 294 291 295 304 309 309 312 314 314 314 306 300 311 318 320 321 318 319 319 317 317 318 315 310 311 316 318 317 318 319 319 320 322 323 323 323 323 322 323 324 325 324 325 325 325 326 327 327 327 326 326 327 328 329 329 329 330 332 334 335
300 299 294 292 299 299 305 308 309 311 316 314 308 296 296 309 318 320 321 320 319 319 319 319 318 314 310 312 317 318 318 318 320 320 320 322 322 323 324 324 324 324 324 322 321 321 322 324 326 327 325 324 325 325 326 327 327 327 328 330 332 333 334
299 297 297 298 299 307 309 309 310 313 315 310 299 293 304 316 320 321 321 321 322 322 320 320 314 319 322 320 319 318 319 319 321 321 322 322 323 324 324 323 325 323 322 320 319 319 321 323 325 326 326 325 325 325 325 325 326 327 329 331 331 331 331
297 299 295 295 300 306 312 312 312 315 308 298 298 309 314 322 322 323 323 321 323 322 321 321 320 322 320 319 317 317 318 319 320 322 322 322 323 324 325 326 324 322 320 319 319 319 320 321 323 325 326 326 326 326 324 324 326 328 329 330 331 330 330
299 299 296 293 288 302 312 312 310 311 305 305 313 317 320 321 323 321 321 322 321 322 320 322 321 319 317 316 316 318 318 319 319 321 323 323 323 323 323 322 322 321 319 317 316 317 318 320 321 323 325 325 325 326 325 326 327 329 328 327 328 327 328
296 296 294 292 301 310 314 314 306 311 311 317 319 322 319 322 323 322 320 320 320 321 320 319 319 318 317 317 318 319 318 318 319 320 322 323 324 324 323 323 322 320 319 318 316 316 318 320 320 321 324 324 324 325 325 330 330 331 330 329 328 326 325
302 299 303 308 310 312 313 313 313 315 316 319 322 324 322 322 322 324 322 319 319 320 321 320 318 316 317 317 318 318 318 318 318 318 320 321 321 322 323 323 324 323 321 320 317 317 318 319 321 321 322 322 323 324 327 331 332 332 332 331 328 326 325
308 309 310 311 312 313 314 314 316 317 319 319 321 322 320 323 325 325 322 321 320 321 322 318 317 317 318 317 318 318 318 318 318 320 321 321 322 321 321 322 323 323 323 321 319 316 318 318 319 321 320 320 321 323 326 329 331 332 332 331 329 328 326
303 297 311 311 313 313 315 316 317 320 322 322 323 323 324 324 325 324 323 322 321 320 320 320 318 318 318 317 318 319 319 318 319 318 319 320 320 320 319 322 322 320 319 318 319 319 318 319 319 318 319 318 321 323 325 325 329 332 330 328 327 326 325
305 306 311 311 312 314 315 317 318 318 321 322 324 326 327 327 327 325 323 322 320 321 320 321 319 318 319 318 318 318 319 319 319 319 318 318 318 320 322 322 322 321 319 318 318 318 318 319 320 320 319 318 319 322 323 325 330 331 330 327 325 326 325
307 308 310 311 314 314 315 316 318 321 323 324 324 325 325 325 324 323 323 323 321 321 321 322 321 319 318 320 320 319 319 319 319 319 318 319 321 322 322 323 323 322 321 320 320 319 318 319 319 319 319 319 320 321 323 325 329 330 330 330 329 327 326
302 304 308 312 306 306 312 316 318 319 323 326 325 325 325 325 324 323 322 322 323 323 322 321 320 319 319 320 320 319 319 320 320 319 319 320 321 322 323 325 323 324 324 324 322 320 318 318 318 318 319 320 321 320 322 324 326 326 328 330 329 328 327
302 312 316 317 321 319 317 317 319 321 324 326 325 325 325 326 326 326 325 322 322 322 322 323 321 321 320 319 320 319 318 319 321 320 320 320 320 321 323 324 324 324 324 325 325 322 320 320 319 319 319 319 321 321 322 323 324 326 326 325 325 326 328
313 314 317 319 316 311 315 320 320 322 325 326 325 327 327 327 327 327 327 326 325 324 323 323 325 324 323 322 320 319 320 320 319 318 319 321 321 322 324 324 325 325 325 325 325 324 323 321 320 321 319 319 321 320 321 321 323 325 325 324 323 324 324
310 318 318 320 319 317 318 320 321 323 325 326 325 325 326 327 326 328 327 328 329 326 325 325 325 326 325 323 322 322 321 320 320 320 320 320 319 320 322 324 324 325 325 325 325 326 326 325 324 322 321 320 321 320 322 321 322 323 323 323 322 322 323
Wind_Speed
4 6 3 5 3 3 5 5 5 0 3 1 6 5 4 5 1 4 2 3 2 2 4 8 13 13 15 16 14 11 6 4 9 10 9 8 8 9 9 10 11 11 11 11 12 13 13 13 13 14 14 14 15 14 14 15 14 13 14 14 13 12 11
6 5 1 1 5 2 2 3 4 3 1 4 1 2 2 3 2 4 2 5 3 5 2 9 14 16 15 15 15 12 11 1 9 9 9 8 6 5 7 9 10 10 11 13 12 13 14 15 16 16 15 15 14 14 15 16 15 15 15 14 14 13 13
5 6 2 3 11 10 6 5 2 4 4 5 3 3 2 4 4 5 5 2 1 2 5 10 15 14 14 13 12 12 11 10 6 1 4 4 4 4 4 4 6 9 10 11 12 14 14 14 14 15 15 15 13 14 14 15 17 17 17 14 13 11 12
6 3 4 1 4 6 4 3 3 3 3 2 6 1 3 4 1 3 6 3 2 2 4 9 11 11 11 10 9 9 9 9 7 7 5 5 4 3 2 1 1 2 4 10 14 14 13 14 14 13 13 13 15 14 14 14 13 12 13 14 13 13 13
3 0 4 4 4 4 4 5 6 3 3 3 3 2 4 5 5 5 9 10 2 1 3 6 9 8 8 9 8 6 6 8 8 3 5 6 6 5 4 4 3 3 2 3 5 7 8 9 9 10 11 13 13 12 13 13 13 13 14 14 13 12 12
2 5 3 3 2 4 6 5 6 4 3 4 6 4 2 1 5 4 6 10 0 2 2 4 6 6 6 8 9 7 8 10 10 8 5 1 4 6 7 7 6 5 3 4 4 4 5 8 10 11 10 9 9 10 10 10 9 10 12 12 12 11 12
2 3 1 3 2 4 5 3 5 3 4 2 0 2 5 2 0 2 2 4 1 1 1 3 5 5 7 8 9 7 8 8 9 8 6 3 3 3 4 5 6 6 3 1 4 7 7 8 9 10 9 9 10 10 10 8 9 8 9 9 9 9 10
3 6 5 3 3 3 3 5 2 2 2 1 0 0 2 1 3 3 1 4 1 3 5 3 4 5 6 8 8 8 5 5 8 7 6 4 4 0 2 3 3 4 5 4 3 5 6 7 8 10 9 8 8 9 9 9 11 11 10 9 9 8 8
2 3 3 3 4 2 1 2 2 1 3 3 3 5 1 2 1 2 4 8 2 2 3 3 3 4 8 10 8 7 9 9 8 7 5 4 4 3 3 3 3 4 4 4 3 2 5 7 5 7 8 8 9 9 10 11 11 12 11 10 9 8 8
4 3 3 4 5 3 1 1 1 2 5 9 6 3 3 2 2 2 2 1 3 3 2 3 6 6 8 10 9 7 7 8 8 7 6 6 5 6 5 4 2 2 1 3 3 2 1 2 5 6 6 8 8 9 10 10 9 9 9 8 9 9 7
1 0 2 1 1 2 2 2 2 2 4 6 7 5 4 3 2 2 1 1 5 3 3 5 7 8 9 10 10 9 8 6 6 6 6 5 5 6 7 7 6 5 5 4 2 1 2 4 2 4 6 8 8 8 9 9 9 9 9 10 10 9 10
2 3 4 0 2 2 2 2 3 3 4 5 6 2 3 3 4 1 3 1 3 2 4 7 8 10 9 10 10 9 8 8 8 8 8 9 7 7 7 9 9 7 6 6 4 4 2 4 6 6 6 5 4 6 8 8 8 9 8 10 10 11 12
3 3 3 3 1 3 3 4 3 3 3 7 8 4 6 4 1 2 5 3 2 4 4 7 8 11 8 10 10 9 8 8 8 8 10 10 10 9 9 9 10 10 8 7 6 5 4 4 4 5 6 6 6 5 4 4 6 8 8 9 10 11 11
3 5 3 1 1 2 4 5 5 5 3 10 11 10 9 8 8 8 6 7 2 1 2 6 7 7 9 9 9 9 10 9 8 9 9 10 10 11 11 10 10 10 9 10 8 7 6 5 5 6 5 5 6 6 5 4 5 5 7 9 10 10 11
3 5 2 1 1 1 3 4 6 6 4 6 8 11 9 9 8 8 8 11 5 0 3 4 7 8 9 10 11 9 9 9 9 9 9 10 11 11 11 10 10 10 10 10 10 10 10 9 9 6 5 4 4 6 6 6 7 6 7 9 10 9 10
0 4 4 2 1 1 1 2 4 3 1 2 1 4 5 3 5 7 9 6 6 5 4 5 7 9 9 8 9 9 7 9 9 9 10 10 11 11 12 11 11 11 11 12 12 11 10 10 9 8 7 7 6 6 5 6 5 5 7 9 10 7 6
0 3 1 3 0 1 4 5 2 2 4 3 3 3 1 2 10 7 6 7 5 4 2 3 7 9 8 8 8 8 9 9 9 10 10 10 11 12 12 12 13 12 10 10 11 11 10 9 9 10 9 8 7 6 6 5 4 5 7 9 10 11 10
1 2 2 1 2 4 2 3 2 2 1 3 2 2 3 5 6 3 1 3 4 5 5 4 6 9 7 4 5 4 5 7 8 9 10 11 11 11 11 12 11 11 9 9 9 9 9 9 10 9 10 10 9 7 5 5 5 7 8 7 7 8 6
2 2 1 3 4 3 3 3 1 3 1 0 2 1 3 6 6 9 6 5 3 3 1 4 8 6 5 3 5 7 8 7 6 8 9 11 11 11 11 12 12 10 10 10 11 12 11 10 11 11 11 9 8 10 8 7 7 5 4 5 7 8 9
3 2 3 3 1 5 6 4 1 2 3 3 3 3 5 6 6 5 8 6 4 3 3 5 6 4 1 3 6 6 7 7 6 7 7 8 10 11 10 11 10 10 10 10 11 11 9 10 10 11 10 9 8 7 8 7 7 7 8 5 6 8 8
2 1 5 4 5 7 5 4 6 6 2 2 1 1 4 9 7 7 7 8 7 6 4 4 3 1 1 2 5 6 5 6 5 6 6 7 9 9 10 11 10 9 9 10 9 9 10 10 11 10 8 8 9 10 11 10 11 11 9 8 9 5 2
1 3 3 3 3 5 1 4 4 2 2 3 5 2 2 5 7 6 7 8 9 9 7 6 3 1 1 3 2 2 3 4 5 5 6 7 8 9 9 9 10 9 9 9 10 10 11 12 11 9 9 8 9 11 13 12 12 12 13 12 9 9 8
3 3 3 3 4 1 3 6 5 5 3 4 4 4 1 1 6 8 9 9 9 9 10 8 4 3 3 3 3 2 1 3 4 5 6 7 8 9 9 9 10 9 8 8 9 10 11 11 10 10 10 10 10 10 12 13 13 13 14 12 10 9 10
3 3 4 4 4 2 3 1 3 5 3 4 3 4 1 1 7 7 8 9 9 10 9 8 7 6 3 3 4 4 3 3 4 5 6 7 7 8 8 9 8 7 8 10 12 12 12 11 9 10 10 10 11 11 11 12 12 12 12 10 7 7 7
3 4 2 2 3 2 2 2 4 4 4 2 3 2 3 5 5 5 7 8 9 10 11 9 7 5 0 3 6 5 4 4 4 5 5 6 7 7 8 7 6 8 9 9 10 10 8 9 9 9 9 10 10 10 9 10 12 11 9 7 7 8 8
4 3 4 3 3 1 3 2 3 4 4 4 3 2 1 5 5 3 3 6 7 9 10 9 5 4 3 6 7 6 5 5 4 3 4 6 7 7 7 7 7 7 8 9 10 10 9 9 9 9 10 11 10 9 9 10 9 6 6 6 6 7 7
2 2 2 0 3 2 4 9 4 1 4 1 3 4 2 2 3 6 4 4 6 6 7 6 7 7 7 7 7 6 6 5 5 5 5 6 6 7 7 8 8 7 7 8 9 8 8 8 8 8 11 11 10 9 10 8 6 6 5 5 6 6 7
2 4 4 2 2 4 8 5 3 5 1 2 4 4 5 3 3 4 5 3 5 5 7 9 8 8 8 6 6 6 6 6 6 5 5 5 5 6 6 6 6 7 7 7 8 8 7 8 7 8 8 9 10 10 9 6 6 6 6 6 6 7 7
4 1 1 3 1 0 2 1 3 1 1 1 4 1 3 5 3 2 3 5 5 6 9 10 9 9 7 7 6 5 6 6 5 5 5 5 5 5 5 6 6 6 6 6 7 8 8 8 7 7 8 9 10 10 7 6 5 5 6 6 6 7 6
1 2 2 2 0 2 1 2 1 2 3 1 3 4 4 1 3 3 4 5 7 8 9 10 7 6 7 6 5 5 6 6 5 4 4 3 3 4 5 5 5 4 4 6 7 8 9 8 8 7 7 8 9 7 7 6 6 5 5 6 6 6 6
3 2 3 1 2 2 3 4 3 1 1 2 2 2 3 4 4 4 5 6 7 8 8 8 8 7 6 6 4 4 4 5 5 5 4 3 3 4 5 4 3 4 4 5 7 7 8 7 7 8 8 8 7 6 6 6 6 5 6 6 6 6 6
2 2 4 1 1 1 0 2 5 5 4 3 1 1 4 4 5 5 6 7 7 7 7 8 9 7 6 6 5 4 3 4 4 4 4 3 3 3 2 2 1 2 4 5 6 6 6 6 6 6 7 7 7 7 7 7 5 5 6 6 6 6 7
2 1 1 1 1 1 3 3 1 2 5 6 5 5 6 6 8 7 6 5 7 6 6 7 8 7 5 5 6 5 4 3 3 4 3 2 3 2 2 2 1 3 3 4 4 5 5 4 5 5 7 7 6 7 7 7 6 5 5 6 5 6 5
4 5 7 9 6 5 7 8 8 7 4 7 7 6 7 8 8 8 8 5 5 4 7 8 9 9 6 5 5 6 5 5 5 4 3 2 2 2 1 0 0 1 2 3 5 5 4 3 4 5 5 6 6 7 6 6 6 6 5 5 5 6 5
3 4 8 11 2 2 6 11 10 9 7 8 10 9 9 8 8 8 9 9 7 6 6 6 8 8 8 7 6 6 5 4 4 3 4 3 2 2 2 1 1 1 2 2 4 5 4 3 4 4 4 5 5 6 6 6 6 6 5 5 4 5 5
2 1 8 10 3 3 4 9 11 10 8 9 10 9 8 8 7 7 8 9 9 8 8 6 5 8 8 8 8 7 5 4 4 4 4 3 2 1 1 1 2 2 2 3 4 4 3 3 4 4 4 4 4 5 5 5 5 5 5 5 4 4 4
3 3 6 8 4 4 4 8 9 10 8 7 10 10 9 8 6 5 7 6 6 8 7 7 5 5 7 7 7 7 7 6 6 5 4 3 2 2 2 2 3 3 4 4 3 3 3 2 2 2 3 4 4 4 4 4 5 5 5 5 4 4 4
Wind_Direction
355 12 327 46 308 250 144 190 194 12 20 187 105 98 71 128 199 256 157 266 216 156 137 357 360 1 8 6 6 11 6 172 168 172 172 178 171 182 185 194 197 191 188 189 189 187 189 190 187 188 187 186 189 187 188 193 196 192 193 196 199 201 200
40 38 277 306 50 344 173 182 116 118 92 28 70 160 50 52 301 300 174 277 347 341 238 359 355 360 6 7 8 13 24 59 178 183 174 169 181 178 165 188 197 194 193 191 193 193 191 190 191 192 190 190 189 189 190 191 191 193 197 197 199 200 199
296 336 199 135 42 25 35 61 50 261 147 184 44 123 160 158 226 285 281 331 44 21 339 343 345 351 358 4 9 12 21 26 30 73 168 140 156 176 217 221 191 191 192 194 194 196 194 192 192 194 193 191 191 193 196 196 195 197 197 197 199 200 201
324 323 346 72 18 68 87 186 92 30 299 99 163 218 121 107 142 339 271 266 294 49 342 318 326 359 356 353 14 17 20 32 32 35 59 108 124 97 108 67 8 312 242 204 194 193 189 188 191 196 194 194 198 196 195 200 202 200 197 197 195 199 201
251 119 15 72 21 43 76 71 50 55 40 325 7 123 158 156 144 200 277 275 188 113 340 322 339 356 356 348 360 6 20 3 357 21 125 126 131 128 127 133 140 94 61 290 234 204 197 192 192 196 193 195 198 193 197 195 192 190 194 197 197 200 199
65 84 34 58 344 1 50 69 66 34 70 143 202 184 67 101 161 163 230 268 122 76 339 328 349 352 1 5 351 352 355 344 334 336 335 5 129 150 159 162 157 162 137 166 164 152 182 181 190 193 193 191 190 192 196 196 194 195 197 199 201 199 200
105 53 30 312 315 282 42 42 96 102 92 123 301 196 159 163 221 88 116 289 221 59 354 354 7 352 17 25 16 357 339 332 324 323 338 358 302 198 141 141 154 147 128 108 154 164 181 185 190 187 193 195 197 194 191 192 196 201 206 210 209 205 202
276 254 259 171 122 191 146 73 85 182 67 51 263 106 66 161 146 157 105 244 190 44 30 14 17 10 29 43 32 357 355 333 339 345 327 5 25 265 117 101 100 117 125 129 143 155 145 166 187 193 191 189 188 186 186 190 196 197 197 202 204 205 211
209 275 224 190 100 221 354 81 88 164 132 163 99 101 111 222 67 336 186 233 144 49 4 357 347 29 44 45 45 7 357 8 360 354 353 1 30 80 151 113 57 89 107 120 125 174 149 172 174 182 184 186 187 189 188 191 193 191 188 185 190 196 207
196 197 208 212 197 165 139 335 272 206 162 149 160 142 143 195 108 184 244 104 87 84 5 8 8 18 47 50 52 46 17 7 3 4 14 30 32 48 63 81 104 26 91 107 70 342 332 183 165 174 190 189 189 189 193 192 189 183 180 172 180 190 197
249 355 319 30 38 178 209 76 2 61 86 93 99 121 158 176 136 203 308 342 128 78 31 35 18 13 13 48 47 45 31 25 33 31 36 46 43 37 45 48 45 47 27 34 104 129 343 326 277 210 198 193 192 191 195 195 193 182 172 171 167 149 198
277 318 284 203 265 286 161 195 86 59 76 106 101 139 134 108 140 215 136 174 149 77 44 5 352 354 11 40 36 35 37 39 45 49 46 55 62 61 56 52 52 44 30 16 25 11 1 320 332 330 324 301 241 202 198 191 187 186 179 183 172 185 200
320 322 303 327 344 25 33 12 338 75 92 83 91 88 124 171 311 101 42 353 177 88 69 1 351 343 15 35 28 25 25 33 37 38 45 48 51 56 56 53 49 45 41 40 21 1 334 328 312 300 293 289 290 283 255 221 197 200 188 191 191 193 200
5 19 13 37 157 134 80 45 26 355 58 100 104 104 115 110 82 52 27 354 322 274 30 347 359 9 21 21 13 29 25 27 26 38 44 46 44 46 53 52 49 46 42 37 29 13 10 355 338 314 284 274 272 267 263 239 218 219 201 204 203 203 204
36 23 36 58 66 306 103 83 65 52 56 85 97 112 109 111 102 88 13 324 290 126 99 28 29 35 27 20 360 12 26 17 20 30 36 42 47 49 48 45 41 39 36 31 26 16 10 7 358 355 328 285 257 266 274 270 255 239 228 222 218 212 213
155 39 11 56 83 142 101 65 72 88 77 63 107 124 154 154 141 122 113 326 294 313 18 62 55 53 39 24 359 356 0 15 23 29 34 37 40 41 41 39 39 38 34 30 26 20 12 8 5 358 346 335 318 288 263 261 246 229 235 236 232 235 237
80 36 34 39 207 211 251 225 94 68 93 94 98 57 92 102 137 136 141 181 245 261 238 77 50 57 43 33 10 341 349 9 25 30 33 36 37 39 38 38 39 37 34 32 29 23 14 9 6 3 355 345 333 314 293 263 239 226 223 220 226 232 234
102 45 7 300 228 240 235 41 318 263 94 169 180 142 147 146 177 125 133 167 174 286 322 49 62 62 60 10 353 343 347 350 24 32 33 37 41 42 41 39 37 33 31 28 24 17 6 0 1 356 8 2 359 358 344 322 283 249 229 225 225 227 217
116 102 208 212 239 249 37 327 313 233 214 39 327 113 180 173 188 144 138 142 164 138 360 44 85 91 94 32 25 15 1 356 13 28 35 37 40 41 41 39 36 33 28 27 25 21 13 5 11 11 14 2 4 24 14 17 17 7 307 263 239 226 216
106 180 144 244 243 347 301 283 217 146 253 261 244 224 221 208 199 172 142 152 142 119 74 62 87 105 144 153 68 34 0 5 5 27 31 35 41 44 42 43 33 29 28 28 30 29 17 18 15 19 14 3 19 22 20 19 4 7 7 347 273 230 205
214 159 202 275 334 288 221 220 198 195 182 139 263 232 180 203 191 192 156 150 146 124 110 99 101 75 303 73 65 37 3 360 25 37 34 36 46 52 51 48 43 33 31 32 27 29 30 28 25 21 4 3 21 33 32 25 31 25 19 11 25 40 68
259 163 198 248 264 272 231 132 83 119 145 153 151 207 123 175 177 174 165 159 155 143 142 145 154 21 207 152 109 52 6 356 27 45 42 45 55 57 57 57 52 43 32 33 35 32 35 35 31 25 22 27 29 38 39 35 36 35 32 23 355 9 23
167 173 214 204 248 261 25 159 141 150 182 165 177 263 161 100 193 168 166 162 160 157 157 154 156 171 180 192 180 93 37 20 28 49 50 48 51 54 56 55 55 48 40 36 36 33 32 32 25 32 30 30 35 34 35 38 40 39 38 30 20 20 24
188 169 205 237 211 266 47 12 132 176 182 196 247 283 317 242 174 167 166 167 164 159 161 159 177 185 173 176 160 117 109 69 52 51 56 54 50 53 56 59 60 57 50 49 40 35 30 22 24 34 38 40 37 36 31 39 42 42 40 35 13 10 21
148 207 217 308 254 217 241 177 152 163 185 226 243 264 81 146 162 170 163 163 168 163 166 173 182 201 104 78 106 125 128 99 67 60 65 67 59 54 53 51 47 61 57 54 49 40 27 16 25 35 44 46 41 36 31 33 40 43 42 33 34 33 37
187 178 238 264 311 23 110 79 166 164 180 208 242 57 90 147 146 139 142 141 156 170 176 180 180 143 120 119 119 121 109 98 88 66 63 70 72 68 60 49 48 61 61 55 51 44 31 27 27 39 48 49 45 41 40 31 21 28 37 43 42 41 44
79 168 217 162 256 136 174 126 116 202 252 356 72 131 133 183 148 138 131 141 152 170 171 169 148 144 140 139 132 124 114 106 92 76 63 57 56 48 45 48 41 49 59 56 53 47 36 29 22 26 50 54 50 46 41 23 17 38 48 47 55 54 51
230 178 201 215 351 112 172 186 196 169 238 62 154 154 138 161 163 142 137 147 154 160 157 150 146 146 141 132 131 119 106 105 103 90 79 74 71 69 62 49 34 41 53 52 57 51 42 32 26 18 29 49 50 48 38 14 22 38 45 46 45 48 49
221 274 85 75 32 34 140 33 51 49 89 171 173 201 128 156 148 146 134 137 149 151 149 148 148 145 149 143 148 136 111 106 97 90 79 69 69 66 60 49 40 37 40 43 52 55 47 43 36 30 24 37 41 36 16 12 29 35 46 49 50 49 43
266 279 285 324 181 168 158 163 280 126 139 150 195 180 149 152 118 158 130 137 135 137 143 139 146 145 140 136 132 119 116 112 107 111 109 92 76 72 67 58 41 34 43 41 41 47 46 40 43 39 36 38 37 18 7 7 20 34 43 48 49 43 42
175 178 151 189 114 116 131 124 110 38 233 158 182 159 132 127 124 117 120 131 136 137 142 139 138 141 150 140 130 124 127 130 135 131 120 106 73 62 66 44 32 43 46 50 42 39 37 29 34 39 37 37 31 13 16 8 23 31 43 51 51 45 41
200 76 120 118 348 319 51 154 147 148 149 136 118 78 96 104 101 119 127 129 128 142 138 142 142 146 158 153 145 148 140 144 143 142 140 129 119 95 84 78 53 58 51 52 49 45 38 19 21 27 34 34 25 16 17 15 13 37 50 47 52 51 48
112 41 251 223 80 180 177 176 218 137 148 146 129 121 120 122 121 121 130 146 150 157 143 147 142 143 163 161 157 153 150 158 168 163 146 128 108 107 103 91 61 64 57 59 50 52 47 25 16 21 26 29 22 18 10 11 4 38 49 53 57 55 51
192 188 171 167 165 190 192 192 178 170 169 146 137 135 137 140 136 143 144 144 151 154 152 157 155 158 163 171 168 169 171 176 176 169 158 150 163 162 142 229 130 98 81 62 58 56 46 31 27 27 26 24 25 24 15 10 11 33 45 52 53 52 52
210 183 161 182 176 148 168 171 159 156 167 156 151 158 156 155 152 154 148 144 150 154 162 168 167 161 168 175 179 176 178 183 180 179 179 177 189 186 196 225 114 55 60 62 65 69 57 36 34 31 36 31 26 27 19 16 17 27 28 47 52 58 53
5 158 166 175 164 116 135 144 145 155 167 164 155 154 155 157 158 164 158 158 155 154 161 177 181 167 167 170 177 179 179 181 178 196 210 224 249 278 264 275 332 351 31 38 44 52 75 61 48 28 25 33 29 33 27 19 17 28 31 38 46 41 42
150 129 171 165 121 80 91 131 142 150 166 168 153 156 158 155 161 165 154 148 152 153 155 166 166 171 168 168 182 176 177 185 193 195 200 224 247 269 289 298 306 342 0 7 2 12 29 54 84 86 48 26 12 22 30 29 22 30 27 27 34 40 39